Tracking 31032 objects as of 13-Jul-2025
HD Live streaming from Space Station
objects crossing your sky now

CZ-6A DEB

Track CZ-6A DEB now!
10-day predictions


NORAD ID: 54279
Int'l Code: 2022-151W
Perigee: 695.7 km
Apogee: 895.3 km
Inclination: 98.6 °
Period: 100.6 minutes
Semi major axis: 7166 km
RCS: Unknown
Launch date: November 11, 2022
Source: People's Republic of China (PRC)
Launch site: Taiyaun Space Center, China (TSC)

Note: This is SATELLITE DEBRIS
Your satellite tracking list
Your tracking list is empty




NASA's NSSDC Master Catalog

Two Line Element Set (TLE):
1 54279U 22151W   25192.98506545  .00000413  00000-0  15712-3 0  9996
2 54279  98.6241 204.8282 0139264 352.3847   7.5220 14.31017047138446
Source of the keplerian elements: AFSPC